Date String (YYYY-MM-DD hh:mm:ss) UTC,Instrument flags,Ambient pressure (hPa),Sample flow (lpm),Bypass flow (lpm),Sample temperature (°C),Ambient temperature (°C),ASC tube jacket temperature (°C),LED temperature (°C),Box temperature (°C),Sample RH (%),Span deviation,Mass concentration (μg/m³),Mass concentration (μg/m³),Mass concentration (μg/m³)
DateTimeUTC,F1_M11,P_M11,Q1_M11,Q2_M11,T1_M11,T2_M11,T3_M11,T4_M11,T5_M11,U1_M11,ZSPAN_M11,X0_M11,X2_M11,X1_M11
2022-11-16 21:00:00,,0833.3,5.01,0.00,21.8,20.3,00.0,30.8,23.6,09.0,0000.0,0009.65,0003.87,0003.46
2022-11-16 21:01:00,,0833.2,5.01,0.00,21.8,20.3,00.0,30.8,23.6,08.8,0000.0,0009.49,0003.89,0003.45
2022-11-16 21:02:00,,0833.2,4.99,0.00,21.8,20.3,00.0,30.8,23.6,08.7,0000.0,0009.55,0003.90,0003.44
2022-11-16 21:03:00,,0833.2,4.99,0.00,21.8,20.3,00.0,30.8,23.6,08.7,0000.0,0009.73,0003.90,0003.44
2022-11-16 21:04:00,,0833.2,5.01,0.00,21.8,20.3,00.0,30.8,23.6,08.9,0000.0,0008.99,0003.89,0003.44
2022-11-16 21:05:00,,0833.2,5.01,0.00,21.8,20.3,00.0,30.8,23.6,08.7,0000.0,0008.26,0003.89,0003.43
2022-11-16 21:06:00,,0833.1,5.00,0.00,21.8,20.4,00.0,30.8,23.6,08.9,0000.0,0008.14,0003.89,0003.42
2022-11-16 21:07:00,,0833.1,4.98,0.00,21.8,20.3,00.0,30.8,23.6,08.8,0000.0,0008.32,0003.90,0003.41
2022-11-16 21:08:00,,0833.1,5.01,0.00,21.8,20.3,00.0,30.8,23.6,08.8,0000.0,0008.48,0003.92,0003.42
2022-11-16 21:09:00,,0833.1,5.01,0.00,21.8,20.3,00.0,30.8,23.6,08.9,0000.0,0009.07,0003.93,0003.41
2022-11-16 21:10:00,,0833.1,4.99,0.00,21.8,20.2,00.0,30.7,23.6,08.9,0000.0,0009.28,0003.92,0003.41
2022-11-16 21:11:00,,0833.1,4.99,0.00,21.8,20.2,00.0,30.7,23.5,08.8,0000.0,0009.02,0003.94,0003.41
2022-11-16 21:12:00,,0833.1,5.00,0.00,21.8,20.3,00.0,30.7,23.6,08.9,0000.0,0009.48,0004.05,0003.43
2022-11-16 21:13:00,,0833.2,5.01,0.00,21.8,20.2,00.0,30.7,23.5,08.9,0000.0,0009.91,0004.15,0003.46
2022-11-16 21:14:00,,0833.1,5.01,0.00,21.7,20.2,00.0,30.7,23.5,08.9,0000.0,0009.72,0004.14,0003.46
2022-11-16 21:15:00,,0833.1,5.00,0.00,21.7,20.2,00.0,30.7,23.5,08.8,0000.0,0009.57,0004.13,0003.45
2022-11-16 21:16:00,,0833.1,4.99,0.00,21.7,20.2,00.0,30.7,23.5,08.9,0000.0,0009.73,0004.22,0003.50
2022-11-16 21:17:00,,0833.1,4.99,0.00,21.7,20.2,00.0,30.7,23.5,09.0,0000.0,0010.17,0004.46,0003.63
2022-11-16 21:18:00,,0833.1,5.00,0.00,21.7,20.1,00.0,30.7,23.4,08.8,0000.0,0010.10,0004.46,0003.64
2022-11-16 21:19:00,,0833.0,5.01,0.00,21.7,20.1,00.0,30.7,23.4,08.6,0000.0,0010.01,0004.44,0003.63
2022-11-16 21:20:00,,0833.0,5.00,0.00,21.6,20.1,00.0,30.7,23.4,08.8,0000.0,0009.41,0004.44,0003.63
2022-11-16 21:21:00,,0833.1,5.00,0.00,21.6,20.1,00.0,30.7,23.4,09.0,0000.0,0008.97,0004.46,0003.63
2022-11-16 21:22:00,,0833.0,4.99,0.00,21.7,20.2,00.0,30.7,23.5,09.0,0000.0,0009.33,0004.46,0003.64
2022-11-16 21:23:00,,0833.1,4.99,0.00,21.7,20.2,00.0,30.7,23.5,08.9,0000.0,0009.02,0004.35,0003.63
2022-11-16 21:24:00,,0833.0,5.00,0.00,21.7,20.2,00.0,30.6,23.5,08.9,0000.0,0008.59,0004.25,0003.62
2022-11-16 21:25:00,,0833.1,5.00,0.00,21.7,20.2,00.0,30.6,23.5,08.9,0000.0,0008.52,0004.25,0003.63
2022-11-16 21:26:00,,0833.0,5.01,0.00,21.7,20.3,00.0,30.6,23.5,09.0,0000.0,0008.65,0004.29,0003.65
2022-11-16 21:27:00,,0833.0,5.00,0.00,21.7,20.3,00.0,30.6,23.5,09.0,0000.0,0008.73,0004.26,0003.63
2022-11-16 21:28:00,,0833.1,5.00,0.00,21.7,20.2,00.0,30.6,23.5,09.0,0000.0,0008.39,0004.02,0003.50
2022-11-16 21:29:00,,0833.0,5.01,0.00,21.7,20.2,00.0,30.6,23.4,09.0,0000.0,0010.18,0004.03,0003.52
2022-11-16 21:30:00,,0833.1,5.00,0.00,21.6,20.2,00.0,30.6,23.4,09.0,0000.0,0010.27,0004.04,0003.54
2022-11-16 21:31:00,,0833.1,5.00,0.00,21.6,20.1,00.0,30.6,23.4,08.9,0000.0,0010.35,0004.06,0003.57
2022-11-16 21:32:00,,0833.1,4.99,0.00,21.6,20.1,00.0,30.6,23.4,08.9,0000.0,0010.51,0004.08,0003.59
2022-11-16 21:33:00,,0833.0,5.00,0.00,21.6,20.1,00.0,30.6,23.4,08.9,0000.0,0010.12,0004.09,0003.60
2022-11-16 21:34:00,,0833.0,5.00,0.00,21.6,20.1,00.0,30.6,23.4,09.1,0000.0,0009.89,0004.14,0003.60
2022-11-16 21:35:00,,0833.0,4.99,0.00,21.6,20.2,00.0,30.6,23.4,09.1,0000.0,0010.04,0004.18,0003.62
2022-11-16 21:36:00,,0832.9,5.00,0.00,21.6,20.1,00.0,30.6,23.4,09.1,0000.0,0010.14,0004.20,0003.62
2022-11-16 21:37:00,,0832.8,5.00,0.00,21.6,20.1,00.0,30.6,23.4,09.2,0000.0,0010.33,0004.21,0003.62
2022-11-16 21:38:00,,0832.9,5.00,0.00,21.6,20.1,00.0,30.6,23.4,09.3,0000.0,0010.31,0004.22,0003.63
2022-11-16 21:39:00,,0832.9,5.00,0.00,21.6,20.2,00.0,30.6,23.4,09.1,0000.0,0010.30,0004.22,0003.65
2022-11-16 21:40:00,,0832.9,5.00,0.00,21.6,20.1,00.0,30.6,23.4,09.0,0000.0,0008.73,0004.21,0003.66
2022-11-16 21:41:00,,0832.9,5.01,0.00,21.6,20.1,00.0,30.6,23.4,09.0,0000.0,0008.38,0004.22,0003.65
2022-11-16 21:42:00,,0832.9,5.00,0.00,21.6,20.1,00.0,30.6,23.4,09.2,0000.0,0008.20,0004.20,0003.65
2022-11-16 21:43:00,,0832.8,5.00,0.00,21.6,20.1,00.0,30.6,23.4,09.3,0000.0,0008.06,0004.18,0003.64
2022-11-16 21:44:00,,0832.8,5.00,0.00,21.6,20.1,00.0,30.6,23.4,09.3,0000.0,0008.18,0004.20,0003.63
2022-11-16 21:45:00,,0832.8,4.99,0.00,21.6,20.1,00.0,30.6,23.4,09.2,0000.0,0008.31,0004.22,0003.64
2022-11-16 21:46:00,,0832.8,5.00,0.00,21.6,20.1,00.0,30.6,23.3,09.1,0000.0,0008.60,0004.21,0003.63
2022-11-16 21:47:00,,0832.9,5.00,0.00,21.6,20.0,00.0,30.6,23.3,09.0,0000.0,0008.66,0004.21,0003.62
2022-11-16 21:48:00,,0832.8,5.00,0.00,21.5,20.0,00.0,30.5,23.3,09.1,0000.0,0008.52,0004.19,0003.62
2022-11-16 21:49:00,,0832.8,5.00,0.00,21.5,20.0,00.0,30.5,23.3,09.0,0000.0,0008.48,0004.18,0003.61
2022-11-16 21:50:00,,0832.9,5.00,0.00,21.5,19.9,00.0,30.5,23.3,09.0,0000.0,0008.71,0004.15,0003.59
2022-11-16 21:51:00,,0832.8,5.00,0.00,21.5,19.9,00.0,30.5,23.3,09.3,0000.0,0008.47,0004.11,0003.57
2022-11-16 21:52:00,,0832.8,5.00,0.00,21.5,19.9,00.0,30.5,23.3,09.0,0000.0,0008.37,0004.07,0003.56
2022-11-16 21:53:00,,0832.9,5.01,0.00,21.5,19.9,00.0,30.5,23.3,08.9,0000.0,0008.35,0004.07,0003.56
2022-11-16 21:54:00,,0832.8,5.01,0.00,21.5,19.9,00.0,30.5,23.3,09.0,0000.0,0008.51,0004.09,0003.56
2022-11-16 21:55:00,,0832.8,5.00,0.00,21.5,20.0,00.0,30.5,23.3,09.0,0000.0,0008.85,0004.11,0003.57
2022-11-16 21:56:00,,0832.7,5.00,0.00,21.5,20.0,00.0,30.5,23.3,09.2,0000.0,0008.88,0004.08,0003.58
2022-11-16 21:57:00,,0832.7,5.00,0.00,21.5,20.0,00.0,30.5,23.3,09.2,0000.0,0008.76,0004.06,0003.58
2022-11-16 21:58:00,,0832.8,4.99,0.00,21.5,20.0,00.0,30.5,23.3,09.2,0000.0,0008.97,0004.10,0003.59
2022-11-16 21:59:00,,0832.8,5.00,0.00,21.5,20.0,00.0,30.5,23.3,09.2,0000.0,0009.61,0004.15,0003.62
